STAR ONE C3

Last updated on Thu Oct 30 2025 00:02:49 GMT+0000 (Coordinated Universal Time)

1 38991U 12062A 25302.48239102 -.00000239 00000+0 00000+0 0 9995 2 38991 0.0159 265.0049 0002095 327.5065 264.2487 1.00270115 47446
UTC large
Height (km)
Speed (km/s)
/
Latitude / Longitude
Inclination (degrees)
Orbital Period (minutes)
Azimuth
Elevation
Range (km)
Doppler Factor

Next 0 passes for location: London (51.5072 / 0.1276)

Sorry there are no passes over London.